Вернуться в каталог

OPS 9311

IDSCS 1

АктивенВоенныеMEO
NORAD 2215·PAYLOAD·🇺🇸 United States

Запущен Jun 16, 1966 с Cape Canaveral Space Force Station

Loading…

Ближайшие Пролёты (ближайшие 24 часа)

TLE

СвежийSource: Space-Track

Эпоха: Sep 13, 2026, 18:25 UTC

1 02215U 66053B   26256.76803993 -.00000084  00000-0  00000-0 0  9999
2 02215   8.8299  42.7829 0030643 225.5994 134.2308  1.07909198135321

Отслеживайте OPS 9311 в реальном времени с AllMySat

Download on the App Store